GFSNW_925_temp_174.txt.gz
Temp
5 5 6 6 6 6 6 4 4 7 6 6 5 6 8 10 10 11 10 9 10 10 10 11 11 11 10 9 7 8 8 10 12 14 16 15 13 11 11 13 14 13 14 15
5 5 5 6 6 6 6 4 4 6 7 5 6 8 8 9 9 10 9 8 8 9 8 9 8 10 9 10 10 8 8 9 10 12 14 12 11 10 9 9 10 12 13 13
5 5 5 5 6 5 6 3 4 3 4 4 5 6 7 8 8 8 9 7 8 8 8 7 7 9 11 10 10 10 9 9 9 10 11 12 10 10 10 10 9 10 10 11
5 5 5 5 5 5 6 3 4 4 5 4 5 6 6 7 7 7 6 8 8 8 7 7 7 7 8 9 9 7 6 7 8 8 9 11 11 11 12 9 10 10 10 10
4 5 5 5 5 4 4 2 3 3 3 5 4 6 6 6 6 6 7 6 6 6 6 7 7 6 6 6 8 7 6 6 7 7 9 11 9 11 11 12 12 12 12 13
4 4 4 5 4 3 2 1 3 4 4 4 3 4 5 6 6 7 7 6 6 6 5 6 7 7 7 7 7 6 4 4 5 7 9 8 8 10 11 12 13 13 12 14
4 4 4 4 4 4 3 2 3 3 3 4 5 7 6 6 6 5 6 5 6 8 7 7 6 5 6 6 6 6 6 6 6 6 8 7 11 12 13 13 13 14 14 15
4 4 4 4 3 3 4 5 3 3 4 5 5 6 6 6 6 5 6 8 8 6 6 3 3 2 5 7 7 6 6 5 4 5 8 9 10 12 12 12 12 11 11 13
4 4 4 4 4 3 4 5 5 2 3 4 6 6 6 4 3 5 6 8 6 7 4 1 1 3 6 6 8 9 8 6 6 4 6 7 10 9 10 11 9 9 10 10
4 4 4 4 3 3 3 4 5 3 2 4 4 4 5 5 3 3 6 6 6 5 -1 -3 -0 3 6 5 6 7 5 3 6 6 6 8 8 9 10 8 7 7 9 10
3 4 4 4 3 4 3 3 4 4 2 3 5 6 6 5 4 2 5 3 3 1 -0 -0 -2 -1 2 4 6 7 6 5 5 6 7 7 7 9 8 7 7 6 6 9
3 3 3 3 3 4 3 3 4 4 3 3 4 6 6 7 7 3 4 3 3 1 -0 1 2 4 3 2 2 7 5 5 4 6 6 7 8 9 8 8 8 8 7 8
3 3 3 3 3 3 3 4 4 3 2 2 3 4 7 7 8 8 3 3 4 3 2 0 1 1 1 2 3 5 6 8 6 6 7 8 9 9 9 9 9 8 8 8
4 3 3 3 2 3 3 4 4 4 2 1 3 6 5 8 8 8 8 6 5 4 2 -0 1 2 3 1 4 4 4 6 6 6 6 7 9 9 8 8 9 9 9 8
3 3 3 3 2 3 3 4 4 5 3 1 2 4 7 8 7 7 7 6 3 1 1 -1 1 2 3 2 2 4 4 5 4 3 6 6 7 8 8 8 9 8 8 9
3 3 3 3 2 3 3 1 4 5 4 -0 0 3 5 8 7 5 4 3 2 1 0 1 3 4 4 2 3 6 6 6 6 5 7 6 7 8 8 8 8 8 9 8
3 3 3 2 2 2 2 1 3 4 4 2 -1 0 4 7 5 3 3 4 1 0 0 4 5 4 5 4 4 6 5 5 5 6 6 6 7 7 9 10 8 8 8 7
3 3 2 2 2 2 2 2 3 4 3 0 -2 1 2 6 2 2 2 1 -1 2 2 2 4 4 3 4 6 5 6 6 6 6 7 7 7 8 9 9 9 9 7 7
3 3 3 1 1 1 2 2 3 4 3 -0 -0 1 -0 1 -2 1 0 2 3 2 3 4 4 4 4 4 4 4 5 5 6 7 7 7 7 8 8 7 7 7 5 5
1 2 1 1 1 2 2 2 1 2 1 1 2 1 2 1 -3 -2 -2 -0 3 2 3 2 2 4 6 6 5 5 5 5 6 5 5 6 6 6 5 3 3 3 2 2
0 1 1 1 2 2 1 2 2 2 2 2 2 1 1 2 1 0 1 1 2 4 4 4 5 5 4 4 5 5 5 5 6 4 4 3 3 4 3 2 2 2 2 1
2 1 1 1 1 2 2 1 2 1 3 2 1 1 2 2 2 2 3 3 3 3 3 4 5 5 5 4 5 5 6 5 4 4 2 2 1 2 1 1 1 0 0 1
4 3 2 2 2 2 1 0 2 0 2 1 2 1 2 2 2 2 1 3 4 4 4 5 5 5 4 4 3 2 2 2 2 2 2 1 0 -1 -0 -1 -1 -1 -0 -0
3 2 -2 1 1 2 2 2 2 2 1 2 2 -0 2 2 1 1 2 4 4 4 4 6 4 4 3 1 2 2 1 1 1 0 -0 -1 -1 -1 -1 -1 -1 -1 -1 -1
2 2 0 0 1 -1 -1 -2 -0 0 1 2 1 1 2 3 0 3 4 4 4 6 5 5 3 2 2 1 1 1 0 0 -0 -0 -1 -1 -1 -2 -2 -2 -2 -1 -1 -1
2 3 1 -1 -1 -4 -1 -1 -1 0 -2 1 1 2 1 2 3 4 5 6 5 5 4 1 1 2 2 1 1 0 0 -0 -0 -1 -1 -1 -2 -2 -3 -2 -2 -2 -2 -2
3 -0 1 -3 -4 -3 -4 -2 -1 1 1 3 2 2 4 3 4 5 4 4 4 4 3 1 1 2 2 1 0 0 -0 -0 -1 -1 -1 -1 -1 -1 -1 -2 -2 -2 -3 -3

GFSNW_925_temp_180.txt.gz
Temp
7 7 7 7 7 7 7 4 5 5 6 5 5 5 8 10 10 10 10 10 10 10 10 10 10 11 12 9 9 9 7 7 6 10 12 11 10 8 8 9 9 9 10 11
7 6 6 6 6 6 5 3 4 4 5 5 5 6 8 8 9 9 9 9 10 9 9 8 9 10 8 8 8 7 7 7 6 9 9 9 9 9 8 8 8 9 9 9
6 6 6 6 6 6 6 3 5 4 5 4 5 6 7 7 8 9 8 7 8 7 7 8 6 8 9 9 9 10 9 8 7 7 7 8 8 10 10 8 8 9 8 9
5 5 6 6 6 5 5 3 4 4 5 5 5 6 6 7 6 7 8 7 7 7 5 6 7 7 8 8 9 9 7 7 7 8 9 9 9 8 9 8 9 8 10 10
4 4 5 5 5 5 4 3 3 3 6 6 6 6 5 6 6 5 4 5 6 6 5 7 7 6 7 7 7 5 6 5 5 4 8 8 7 8 9 9 9 9 10 10
4 4 4 5 5 4 2 2 3 4 6 5 6 4 5 6 6 6 6 5 4 4 4 4 5 5 5 5 6 6 4 2 3 4 7 6 5 8 9 9 10 10 9 11
4 3 4 4 4 4 2 3 3 4 4 5 6 6 6 6 6 4 5 5 5 6 5 5 5 5 4 5 5 6 5 4 3 3 6 1 8 8 8 8 9 7 8 8
4 4 3 3 3 3 4 3 3 3 4 5 5 5 5 5 6 5 5 6 5 5 5 3 4 3 4 5 5 4 4 4 2 3 4 6 8 7 6 7 7 7 6 7
4 4 4 4 3 3 3 3 4 3 4 4 6 5 5 4 4 4 5 5 4 5 4 2 1 3 6 5 6 4 4 5 3 1 3 4 7 6 7 7 6 7 6 6
4 4 4 4 4 3 2 2 3 3 2 3 5 3 4 4 4 3 5 4 4 4 -2 -4 -1 3 5 4 6 6 1 2 3 3 2 5 5 6 7 6 5 4 5 7
3 4 4 4 4 3 2 2 2 3 1 2 4 4 4 4 3 3 4 4 3 1 -0 0 -3 -1 1 3 5 6 5 0 0 -2 -2 2 6 7 6 6 7 7 6 7
3 4 4 4 4 4 4 3 4 5 1 1 3 4 5 5 5 3 2 4 2 1 -1 -4 -4 -2 -1 1 1 5 4 3 2 2 1 5 4 5 7 6 5 6 6 7
3 3 4 4 3 3 4 4 4 5 -1 -0 1 2 5 5 5 5 3 1 2 2 1 -2 -2 1 1 1 2 4 4 4 3 4 6 5 6 6 7 6 6 7 7 7
3 3 3 3 3 3 4 3 4 4 1 -2 2 3 4 6 5 5 5 4 2 1 0 -1 -0 2 2 1 4 3 3 4 4 4 5 5 5 6 6 6 5 6 7 7
3 3 3 3 2 2 3 4 4 5 3 0 1 3 5 6 5 5 5 3 2 1 -0 -2 0 2 2 1 1 3 3 5 4 4 6 5 6 6 5 5 6 6 6 7
3 3 3 3 2 1 2 1 2 5 5 -1 0 3 4 4 4 4 3 1 1 -0 -1 -0 1 2 2 -0 2 6 6 6 6 5 6 5 5 5 5 5 5 6 6 7
4 3 3 3 1 1 1 1 3 3 5 -0 -0 1 3 4 3 1 1 1 -2 -1 -2 -2 1 1 1 -2 3 5 6 6 5 5 5 5 5 4 5 5 6 6 7 6
3 3 3 1 1 1 3 2 3 4 2 -0 -1 1 1 4 2 0 -0 -1 -2 -1 -0 -1 1 2 1 3 5 6 6 4 4 5 5 5 6 5 4 5 5 6 6 5
3 2 1 0 1 1 2 3 4 5 3 0 1 1 0 -1 -0 0 1 1 2 1 3 3 3 2 4 5 6 4 4 3 3 4 3 3 3 4 4 5 4 3 3 3
1 2 1 1 1 2 3 3 2 1 0 -0 1 1 1 1 -2 -1 -3 1 3 3 2 1 3 4 5 4 3 3 4 3 2 2 3 4 4 4 4 3 2 2 2 2
1 1 2 2 3 3 1 2 1 1 1 1 2 1 1 1 1 -0 -2 -2 0 3 2 2 4 3 4 3 3 3 3 3 3 4 3 3 4 3 3 2 2 1 1 1
1 1 1 1 1 1 1 0 1 1 3 1 1 1 2 1 -0 -0 0 1 2 2 -2 3 3 3 3 3 3 2 2 1 1 1 1 1 1 1 1 1 0 -0 -1 -1
3 3 2 2 1 -2 -0 0 3 1 1 0 1 -0 1 -0 1 -0 1 3 1 2 3 4 4 3 2 2 2 2 1 1 1 1 0 -0 -0 -1 -1 -1 -1 -1 -1 -1
1 2 -0 0 -0 1 1 2 2 1 1 0 1 -1 1 1 1 0 2 2 3 3 3 4 4 2 2 1 1 1 0 0 -0 -0 -1 -1 -1 -2 -2 -2 -2 -2 -2 -2
2 2 -0 -1 -0 -2 -1 -2 -1 -1 -0 1 -0 -0 0 2 0 2 2 3 4 5 3 4 2 1 1 1 1 0 -0 -1 -1 -1 -1 -2 -2 -2 -2 -2 -2 -2 -2 -3
1 2 -0 -3 -3 -6 -1 -1 -2 -1 -2 -2 -1 1 -1 -0 1 3 3 4 5 3 3 1 0 1 1 1 0 0 -0 -0 -1 -1 -1 -1 -2 -2 -3 -3 -3 -3 -3 -3
2 2 0 -2 -5 -5 -7 -5 -2 -2 -1 -0 2 1 3 2 2 4 4 3 3 1 2 1 1 1 1 0 0 -1 -0 -1 -1 -1 -1 -2 -2 -1 -2 -2 -3 -3 -3 -4

GFSNW_925_temp_183.txt.gz
Temp
7 7 7 7 7 6 5 5 5 5 6 6 5 7 7 9 8 9 9 9 9 10 11 11 11 11 12 10 10 10 9 9 8 11 11 12 12 9 8 9 9 9 9 10
7 7 7 6 5 5 4 3 3 5 7 6 6 6 7 8 8 9 8 8 9 10 10 9 10 11 9 9 10 8 9 8 9 11 10 10 9 9 8 8 8 8 9 11
7 7 6 6 6 6 5 4 5 4 4 4 7 7 6 6 8 8 9 8 8 8 8 8 8 9 8 8 9 10 10 8 9 10 11 10 9 10 10 8 8 9 10 10
7 7 6 6 6 6 5 3 4 5 5 4 7 7 7 7 7 7 8 7 8 8 6 7 7 8 8 8 9 10 8 7 8 9 10 10 9 9 10 9 9 8 9 10
5 6 6 6 6 5 3 4 4 4 6 7 7 8 7 8 6 7 6 6 7 7 7 8 7 7 8 8 8 8 7 7 7 5 9 8 8 9 9 9 9 9 10 10
4 5 5 5 5 5 2 2 4 5 6 6 6 5 7 7 7 6 7 6 6 6 6 6 7 7 6 7 7 7 6 5 5 7 8 7 6 9 9 10 10 10 9 11
4 4 4 4 4 5 3 3 4 5 6 6 6 6 7 7 7 6 6 6 6 6 5 5 5 5 4 5 5 7 5 6 5 6 7 4 9 9 9 8 9 9 7 7
4 4 4 4 4 4 4 3 4 4 5 6 6 6 6 6 7 5 5 6 6 6 6 5 5 4 5 6 6 6 6 7 5 5 5 7 8 9 8 7 8 9 6 7
4 4 4 4 3 3 4 3 5 4 5 5 6 5 6 5 5 5 5 4 5 6 6 5 4 5 6 6 6 5 5 7 6 4 4 5 9 7 8 8 7 9 9 9
4 4 4 3 3 3 3 2 4 3 3 4 6 5 6 5 5 6 6 4 4 5 3 3 5 6 6 6 6 5 3 4 4 5 5 6 8 8 8 7 9 9 9 8
4 4 4 4 3 2 3 2 3 3 2 3 4 5 4 4 5 5 4 5 4 3 4 5 3 4 5 5 7 7 6 3 4 3 3 4 8 7 7 10 9 9 9 8
4 4 4 4 2 2 2 0 2 4 2 3 3 4 5 5 5 4 3 6 4 4 3 1 0 3 1 4 5 6 6 6 6 5 5 8 7 9 9 8 8 8 7 7
4 4 4 4 3 2 3 2 3 4 2 2 3 4 4 5 5 6 5 3 4 4 3 1 2 4 4 4 4 6 6 6 6 6 9 8 8 8 8 8 8 8 8 8
4 4 4 4 3 3 4 3 5 4 1 2 3 3 4 5 5 5 5 3 2 2 3 3 4 5 5 5 6 6 7 6 7 7 8 8 8 8 8 8 8 7 7 7
3 4 3 3 3 3 4 4 5 5 4 2 3 2 4 4 5 5 5 3 4 4 4 4 5 4 4 4 3 5 6 6 6 6 8 8 8 9 8 7 7 7 7 7
4 3 3 3 2 3 3 1 4 5 5 2 3 2 4 3 4 3 3 3 3 3 4 4 4 4 5 4 4 7 7 7 7 7 8 7 7 7 7 7 7 7 7 7
3 3 3 3 1 2 2 2 3 4 5 2 2 3 3 3 2 2 2 2 2 3 3 2 4 4 4 2 4 6 7 7 7 7 6 5 6 6 7 7 7 6 6 7
3 3 3 2 2 2 3 2 3 4 2 1 2 3 3 3 3 3 1 2 2 2 3 1 3 3 3 3 6 6 6 6 6 6 6 5 5 5 6 6 6 6 6 4
2 1 1 1 0 1 2 3 4 5 4 2 2 4 3 1 1 2 2 1 2 2 3 3 3 4 4 5 4 4 4 4 4 5 3 3 4 5 5 5 6 5 3 2
2 2 2 2 2 2 2 1 2 2 1 1 3 2 3 2 0 1 2 2 4 4 4 3 4 5 6 5 4 3 3 4 3 3 4 5 4 5 5 3 2 1 1 1
3 1 2 2 2 2 1 2 1 1 2 2 2 3 3 2 4 3 0 2 3 3 4 3 4 5 4 4 4 2 3 3 3 3 3 2 3 3 3 2 1 1 1 0
2 2 1 1 1 0 1 1 2 2 4 2 2 2 3 2 1 3 1 2 2 3 2 3 4 4 3 3 2 2 2 2 1 1 0 1 1 1 0 0 0 -0 -1 -1
4 2 2 1 1 -1 1 1 3 2 2 1 1 2 3 2 2 2 3 3 3 3 3 4 5 3 2 2 2 1 1 0 0 0 -0 -1 -1 -1 -1 -1 -1 -1 -1 -1
1 2 1 1 1 1 2 3 3 3 2 1 2 1 3 2 3 2 2 3 3 2 4 5 5 3 2 1 1 1 0 0 -0 -0 -1 -1 -1 -2 -2 -2 -2 -2 -2 -2
2 2 -0 0 1 -0 0 -0 1 0 1 2 2 2 2 2 1 2 2 2 4 5 5 5 3 2 2 1 1 0 -0 -0 -1 -1 -1 -2 -2 -2 -2 -3 -3 -3 -3 -3
2 2 0 -1 -1 -3 -0 -1 0 -0 0 1 2 2 1 1 2 3 3 4 5 6 5 3 2 2 1 1 1 0 -0 -0 -1 -1 -1 -2 -2 -2 -3 -3 -3 -3 -3 -4
2 -1 0 -3 -3 -3 -3 -2 0 -1 2 3 3 2 3 3 3 4 5 4 4 3 2 2 2 2 1 1 1 0 0 -0 -1 -1 -1 -1 -2 -2 -2 -2 -3 -3 -4 -4

GFSNW_925_temp_186.txt.gz
Temp
6 10 9 9 9 8 9 6 5 6 7 6 5 8 7 6 8 8 8 9 10 11 11 11 11 12 13 14 13 13 12 13 13 15 15 15 15 14 11 12 12 11 11 13
8 10 10 9 8 9 8 3 4 6 7 7 7 6 6 6 7 7 7 7 8 9 9 9 9 11 11 12 13 12 12 12 13 13 12 13 12 11 11 10 10 10 11 13
6 7 7 7 7 8 8 4 5 3 3 4 7 8 7 7 7 7 7 7 8 8 8 10 10 10 10 11 12 10 12 12 12 14 13 14 12 13 11 10 10 11 12 12
6 6 5 5 5 5 5 3 5 5 6 6 8 9 7 7 7 6 8 7 9 9 8 10 10 12 10 10 10 11 11 10 11 12 13 13 13 13 13 12 12 10 12 13
6 5 5 4 5 5 3 4 5 6 7 6 7 8 7 8 7 7 7 8 9 10 10 11 10 10 10 10 10 10 10 9 10 9 11 12 11 12 12 13 13 13 13 13
6 5 4 4 5 5 3 4 5 7 6 6 7 7 7 7 7 7 9 9 9 9 9 11 12 12 12 11 11 10 8 9 7 9 12 11 9 11 13 13 14 13 12 14
4 5 4 5 5 6 4 3 7 8 7 7 7 7 8 6 7 7 8 10 10 8 9 9 9 9 9 9 9 11 9 9 9 9 9 7 12 13 12 12 12 13 13 13
4 4 4 4 4 5 4 3 6 7 6 6 6 6 6 7 9 8 9 9 10 10 10 9 7 7 8 8 8 9 9 9 8 8 9 11 12 12 12 11 11 12 12 12
3 3 4 4 4 5 5 3 5 6 6 6 7 6 7 8 8 8 7 8 9 10 10 8 8 8 10 8 7 9 8 9 9 8 7 8 12 12 12 11 9 13 12 12
4 3 4 4 4 4 5 3 4 6 5 5 7 7 8 10 9 9 7 6 7 9 8 8 9 9 10 9 9 7 7 7 7 8 8 10 12 13 11 8 10 12 12 12
4 4 4 3 3 4 5 2 5 6 6 5 7 8 8 9 10 9 8 7 6 8 8 9 7 9 9 9 11 9 8 7 7 7 7 7 12 11 9 12 12 12 12 12
4 4 3 3 3 3 4 2 4 4 6 4 5 5 6 9 11 9 8 10 8 8 8 8 8 7 7 9 9 11 9 10 9 8 9 11 11 12 13 12 12 12 12 11
4 3 3 2 3 3 3 3 4 5 5 5 7 7 5 6 7 9 8 9 9 8 9 8 8 8 10 8 9 10 10 10 8 9 11 11 12 12 12 12 12 12 12 11
4 4 3 2 2 2 3 3 5 5 6 5 5 5 6 5 6 7 8 8 7 8 10 8 8 9 9 9 10 9 10 10 9 9 10 11 12 12 12 12 12 11 11 11
4 4 3 3 3 3 3 4 4 5 8 6 6 6 5 5 6 7 7 8 9 9 8 8 8 10 8 9 9 9 10 10 9 9 11 11 11 11 11 10 10 10 10 10
4 4 3 3 4 4 4 3 5 5 5 6 6 6 6 6 6 7 8 8 8 8 8 9 9 9 8 7 8 10 11 11 10 10 10 10 10 10 10 10 10 10 9 10
4 3 3 3 4 4 4 5 6 5 6 6 5 6 5 6 3 3 6 7 6 7 7 7 9 9 7 7 7 10 10 10 10 10 9 8 9 9 9 8 8 8 9 9
4 3 3 2 2 4 3 3 4 5 6 7 6 5 5 6 5 4 4 6 6 6 7 6 7 8 7 6 9 9 8 8 8 7 6 6 7 7 7 8 9 8 8 9
2 2 1 1 1 2 2 4 5 5 6 6 7 6 5 5 3 3 5 6 5 6 6 7 7 7 6 8 8 7 6 5 6 5 5 6 6 7 8 8 8 7 6 3
2 3 2 2 2 3 4 4 4 5 6 6 6 7 5 6 4 3 4 6 7 5 6 7 6 7 9 9 8 6 4 5 5 5 7 6 6 7 7 5 4 2 2 2
3 3 2 1 2 4 4 3 4 4 5 6 6 7 5 5 6 5 5 5 6 5 7 6 7 7 7 6 5 3 2 3 3 3 2 2 3 4 4 2 1 1 1 1
4 2 2 2 4 4 4 4 4 5 6 6 6 6 7 5 5 6 4 5 5 5 6 5 6 6 4 4 3 2 2 2 2 1 1 2 1 1 1 1 1 0 -0 -1
5 5 4 5 3 4 4 3 5 5 5 4 5 5 6 4 6 5 5 5 5 6 5 6 8 4 3 4 3 2 2 1 1 1 0 -0 -0 -1 -0 -0 -1 -1 -1 -1
6 5 3 4 4 5 6 7 7 6 5 5 6 5 6 5 6 5 5 5 6 5 5 7 6 4 3 3 2 3 2 1 1 1 -0 -0 -0 -1 -1 -1 -1 -1 -1 -2
5 5 5 4 4 4 3 4 4 4 6 5 5 4 5 4 4 5 5 4 5 7 7 7 5 4 3 3 2 2 1 0 0 0 -0 -1 -1 -1 -1 -2 -2 -2 -2 -2
5 5 4 3 3 3 2 2 4 4 5 6 6 5 5 4 6 4 5 6 7 8 8 5 4 3 3 2 2 1 1 1 0 -0 -0 -1 -1 -1 -2 -2 -2 -2 -2 -2
5 3 2 2 2 3 3 4 5 5 6 6 7 5 6 6 6 6 7 7 7 5 4 4 4 3 2 1 1 1 1 1 -0 -0 -0 -1 -1 -2 -1 -0 -2 -2 -2 -3